Powrót do katalogu

PEGASUS R/B

AktywnyPO
NORAD 31305·ROCKET BODY·🇺🇸 United States

Wystrzelony Apr 25, 2007 z Vandenberg Space Force Base

Loading…

Następne Przeloty (najbliższe 24 godziny)

TLE

ŚwieżeSource: Space-Track

Epoka: Sep 14, 2026, 09:50 UTC

1 31305U 07015B   26257.41014910  .00006913  00000-0  24299-3 0  9995
2 31305  97.9374 232.4159 0011635  18.6648 341.5015 15.29668668 62697

Śledź PEGASUS R/B w czasie rzeczywistym z AllMySat

Download on the App Store